FW7213 Weather Reports


Display with metric or nautical units.
time (UTC)temp
F
wind
direction
speed
MPH
gust
MPH
rain 1hr
in
rain 24hr
in
rain mn
in
humidity
%
barometer
mb
20260902182556 93 115 1.0 7.0 0.00 0.00 0.00 58 1018.5
20260902182059 93 33 0.0 4.0 0.00 0.00 0.00 62 1018.5
20260902181614 93 112 1.0 3.0 0.00 0.00 0.00 57 1018.5
20260902181055 93 0 1.0 5.0 0.00 0.00 0.00 59 1018.6
20260902180558 93 4 2.0 8.0 0.00 0.00 0.00 60 1018.7
20260902180100 94 19 1.0 8.0 0.00 0.00 0.00 57 1018.8
20260902175558 94 155 3.0 6.0 0.00 0.00 0.00 61 1018.7
20260902175102 93 15 1.0 4.0 0.00 0.00 0.00 62 1018.8
20260902174601 93 328 2.0 8.0 0.00 0.00 0.00 61 1018.9
20260902174058 93 146 2.0 8.0 0.00 0.00 0.00 62 1019.0
20260902173558 92 173 2.0 8.0 0.00 0.00 0.00 62 1019.1
20260902173119 92 174 1.0 5.0 0.00 0.00 0.00 58 1019.1
20260902172554 93 74 2.0 5.0 0.00 0.00 0.00 56 1019.1
20260902172055 93 134 1.0 5.0 0.00 0.00 0.00 59 1019.1
20260902171606 92 162 1.0 5.0 0.00 0.00 0.00 58 1019.1
20260902171100 92 0 1.0 5.0 0.00 0.00 0.00 57 1019.2
20260902170559 92 96 0.0 7.0 0.00 0.00 0.00 61 1019.3
20260902170103 91 92 2.0 7.0 0.00 0.00 0.00 60 1019.4
20260902165558 91 87 2.0 7.0 0.00 0.00 0.00 57 1019.4
20260902165059 91 82 2.0 5.0 0.00 0.00 0.00 59 1019.4
20260902164607 91 133 2.0 6.0 0.00 0.00 0.00 60 1019.5
20260902164058 91 101 2.0 6.0 0.00 0.00 0.00 61 1019.4
20260902163555 91 95 1.0 4.0 0.00 0.00 0.00 63 1019.4
20260902163107 90 143 0.0 3.0 0.00 0.00 0.00 67 1019.5
20260902162558 90 0 1.0 4.0 0.00 0.00 0.00 64 1019.4
20260902162058 90 30 1.0 6.0 0.00 0.00 0.00 66 1019.5
20260902161601 90 99 1.0 6.0 0.00 0.00 0.00 67 1019.6
20260902161100 90 143 3.0 6.0 0.00 0.00 0.00 63 1019.6
20260902160558 89 167 2.0 6.0 0.00 0.00 0.00 67 1019.7
20260902160105 89 120 0.0 4.0 0.00 0.00 0.00 71 1019.7
20260902155558 89 96 0.0 3.0 0.00 0.00 0.00 71 1019.8
20260902155058 89 306 0.0 4.0 0.00 0.00 0.00 72 1019.9
20260902154604 88 0 0.0 4.0 0.00 0.00 0.00 72 1019.9
20260902154055 88 0 0.0 2.0 0.00 0.00 0.00 71 1019.9
20260902153558 88 0 0.0 2.0 0.00 0.00 0.00 72 1019.8
20260902153108 88 0 0.0 2.0 0.00 0.00 0.00 75 1019.8
20260902152602 87 0 0.0 3.0 0.00 0.00 0.00 76 1019.8
20260902152058 87 0 0.0 3.0 0.00 0.00 0.00 76 1019.9
20260902151559 87 68 0.0 3.0 0.00 0.00 0.00 77 1019.8
20260902151058 87 0 0.0 4.0 0.00 0.00 0.00 74 1019.8
20260902150558 86 0 0.0 4.0 0.00 0.00 0.00 78 1019.9
20260902150058 86 79 0.0 2.0 0.00 0.00 0.00 76 1019.9
20260902145558 86 226 0.0 2.0 0.00 0.00 0.00 79 1019.9
20260902145058 86 0 0.0 1.0 0.00 0.00 0.00 78 1019.8
20260902144559 85 23 0.0 5.0 0.00 0.00 0.00 79 1019.8
20260902144055 85 0 1.0 5.0 0.00 0.00 0.00 79 1019.8
20260902143559 85 18 0.0 3.0 0.00 0.00 0.00 83 1019.8
20260902143102 84 0 0.0 3.0 0.00 0.00 0.00 84 1019.7
20260902142559 84 0 0.0 3.0 0.00 0.00 0.00 84 1019.7
20260902142059 84 13 0.0 2.0 0.00 0.00 0.00 84 1019.6
20260902141600 84 0 0.0 2.0 0.00 0.00 0.00 82 1019.9
20260902141058 83 0 0.0 2.0 0.00 0.00 0.00 83 1019.8
20260902140558 83 6 0.0 1.0 0.00 0.00 0.00 86 1019.8
20260902140057 83 77 0.0 3.0 0.00 0.00 0.00 84 1019.8
20260902135557 82 0 0.0 3.0 0.00 0.00 0.00 85 1019.8
20260902135058 82 86 0.0 2.0 0.00 0.00 0.00 84 1019.9
20260902134610 82 0 0.0 1.0 0.00 0.00 0.00 86 1019.8
20260902134057 82 0 0.0 1.0 0.00 0.00 0.00 89 1019.8
20260902133556 81 0 0.0 1.0 0.00 0.00 0.00 87 1019.7
20260902133105 81 0 0.0 2.0 0.00 0.00 0.00 89 1019.8
20260902132559 80 0 0.0 2.0 0.00 0.00 0.00 91 1019.8
20260902132102 80 8 0.0 2.0 0.00 0.00 0.00 88 1019.8
20260902131601 80 0 0.0 0.0 0.00 0.00 0.00 91 1019.7
20260902131058 80 0 0.0 2.0 0.00 0.00 0.00 89 1019.7
20260902130557 79 100 0.0 2.0 0.00 0.00 0.00 89 1019.8
20260902130115 79 0 0.0 2.0 0.00 0.00 0.00 90 1019.8
20260902125559 78 0 0.0 2.0 0.00 0.00 0.00 91 1019.7
20260902125059 77 0 0.0 1.0 0.00 0.00 0.00 96 1019.7
20260902124603 76 0 0.0 2.0 0.00 0.00 0.00 94 1019.7
20260902124058 75 89 0.0 2.0 0.00 0.00 0.00 96 1019.7
20260902123558 74 0 0.0 1.0 0.00 0.00 0.00 97 1019.6
20260902123109 74 0 0.0 1.0 0.00 0.00 0.00 97 1019.5
20260902122558 73 135 0.0 1.0 0.00 0.00 0.00 97 1019.5
20260902122058 73 91 0.0 1.0 0.00 0.00 0.00 97 1019.4
20260902121558 73 0 0.0 1.0 0.00 0.00 0.00 97 1019.4
20260902121059 72 0 0.0 0.0 0.00 0.00 0.00 97 1019.4
20260902120601 72 0 0.0 0.0 0.00 0.00 0.00 97 1019.3
20260902120107 72 0 0.0 0.0 0.00 0.00 0.00 97 1019.4
20260902115601 72 0 0.0 0.0 0.00 0.00 0.00 97 1019.3
20260902115059 72 0 0.0 0.0 0.00 0.00 0.00 97 1019.1
20260902114604 72 0 0.0 0.0 0.00 0.00 0.00 97 1019.1
20260902114100 72 0 0.0 0.0 0.00 0.00 0.00 97 1019.1
20260902113559 72 0 0.0 0.0 0.00 0.00 0.00 97 1019.1
20260902113100 72 0 0.0 0.0 0.00 0.00 0.00 97 1019.1
20260902112558 72 0 0.0 0.0 0.00 0.00 0.00 97 1019.0
20260902112059 72 0 0.0 0.0 0.00 0.00 0.00 97 1019.1
20260902111604 72 0 0.0 0.0 0.00 0.00 0.00 97 1019.1
20260902111059 72 0 0.0 0.0 0.00 0.00 0.00 97 1018.9
20260902110558 72 0 0.0 0.0 0.00 0.00 0.00 97 1018.9
20260902110113 72 0 0.0 0.0 0.00 0.00 0.00 97 1018.8
20260902105558 72 0 0.0 0.0 0.00 0.00 0.00 97 1018.7
20260902105058 72 0 0.0 0.0 0.00 0.00 0.00 97 1018.7
20260902104616 72 0 0.0 0.0 0.00 0.00 0.00 97 1018.7
20260902104059 72 0 0.0 0.0 0.00 0.00 0.00 97 1018.7
20260902103558 72 0 0.0 0.0 0.00 0.00 0.00 97 1018.7
20260902103122 72 0 0.0 0.0 0.00 0.00 0.00 97 1018.6
20260902102558 72 0 0.0 0.0 0.00 0.00 0.00 97 1018.8
20260902102058 72 0 0.0 0.0 0.00 0.00 0.00 97 1018.7
20260902101609 72 0 0.0 0.0 0.00 0.00 0.00 97 1018.7
20260902101100 72 0 0.0 0.0 0.00 0.00 0.00 97 1018.7
20260902100559 72 0 0.0 0.0 0.00 0.00 0.00 97 1018.6
20260902100059 72 0 0.0 0.0 0.00 0.00 0.00 97 1018.5
20260902095559 72 0 0.0 0.0 0.00 0.00 0.00 97 1018.5
20260902095059 72 0 0.0 0.0 0.00 0.00 0.00 97 1018.5
20260902094602 72 0 0.0 0.0 0.00 0.00 0.00 97 1018.5
20260902094058 73 0 0.0 0.0 0.00 0.00 0.00 97 1018.4
20260902093558 73 0 0.0 0.0 0.00 0.00 0.00 97 1018.4
20260902093104 73 0 0.0 0.0 0.00 0.00 0.00 97 1018.3
20260902092603 73 0 0.0 0.0 0.00 0.00 0.00 97 1018.2
20260902092100 73 0 0.0 0.0 0.00 0.00 0.00 97 1018.2
20260902091557 73 0 0.0 0.0 0.00 0.00 0.00 97 1018.1
20260902091058 73 0 0.0 0.0 0.00 0.00 0.00 97 1018.0
20260902090559 73 0 0.0 0.0 0.00 0.00 0.00 97 1018.0
20260902085555 73 0 0.0 0.0 0.00 0.00 0.00 97 1018.0
20260902085059 73 0 0.0 0.0 0.00 0.00 0.00 97 1017.9
20260902084602 73 0 0.0 0.0 0.00 0.00 0.00 97 1018.0
20260902084058 73 0 0.0 0.0 0.00 0.00 0.00 97 1017.9
20260902083559 73 0 0.0 0.0 0.00 0.00 0.00 97 1017.9
20260902083059 73 0 0.0 0.0 0.00 0.00 0.00 97 1017.9
20260902082558 73 0 0.0 0.0 0.00 0.00 0.00 97 1017.9
20260902082058 73 0 0.0 0.0 0.00 0.00 0.00 97 1017.9
20260902081605 73 0 0.0 0.0 0.00 0.00 0.00 97 1017.9
20260902081057 73 0 0.0 0.0 0.00 0.00 0.00 97 1018.0
20260902080559 74 0 0.0 0.0 0.00 0.00 0.00 97 1017.9
20260902080059 74 0 0.0 1.0 0.00 0.00 0.00 97 1017.9
20260902075601 74 0 0.0 1.0 0.00 0.00 0.00 97 1017.9
20260902075058 74 0 0.0 1.0 0.00 0.00 0.00 97 1017.9
20260902074604 74 0 0.0 1.0 0.00 0.00 0.00 97 1017.9
20260902074100 74 0 0.0 1.0 0.00 0.00 0.00 96 1017.9
20260902073559 74 0 0.0 1.0 0.00 0.00 0.00 97 1018.0
20260902073108 74 0 0.0 0.0 0.00 0.00 0.00 97 1017.9
20260902072601 74 0 0.0 0.0 0.00 0.00 0.00 96 1018.0
20260902072059 74 0 0.0 0.0 0.00 0.00 0.00 96 1018.0
20260902071601 74 0 0.0 0.0 0.00 0.00 0.00 96 1018.0
20260902071058 74 0 0.0 0.0 0.00 0.00 0.00 96 1017.9
20260902070557 74 0 0.0 0.0 0.00 0.00 0.00 96 1017.9
20260902070106 74 0 0.0 0.0 0.00 0.00 0.00 96 1017.9
20260902065558 74 0 0.0 0.0 0.00 0.00 0.00 96 1017.9
20260902065100 74 0 0.0 0.0 0.00 0.00 0.00 96 1017.9
20260902064605 74 0 0.0 0.0 0.00 0.00 0.00 96 1018.0
20260902064102 74 0 0.0 0.0 0.00 0.00 0.00 96 1018.0
20260902063559 75 0 0.0 0.0 0.00 0.00 0.00 96 1018.0
20260902063113 75 0 0.0 0.0 0.00 0.00 0.00 96 1018.0
20260902062556 75 0 0.0 0.0 0.00 0.00 0.00 96 1018.1
20260902062058 75 0 0.0 0.0 0.00 0.00 0.00 95 1018.0
20260902061625 75 0 0.0 0.0 0.00 0.00 0.00 95 1018.1
20260902061107 75 0 0.0 0.0 0.00 0.00 0.00 95 1018.1
20260902060559 75 0 0.0 1.0 0.00 0.00 0.00 95 1018.1
20260902060110 75 0 0.0 1.0 0.00 0.00 0.00 95 1018.0
20260902055559 75 0 0.0 0.0 0.00 0.00 0.00 95 1018.1
20260902055059 75 0 0.0 0.0 0.00 0.00 0.00 94 1018.1
20260902054601 75 0 0.0 0.0 0.00 0.00 0.00 94 1018.2
20260902054058 75 0 0.0 0.0 0.00 0.00 0.00 94 1018.2
20260902053558 75 0 0.0 0.0 0.00 0.00 0.00 94 1018.1
20260902053105 76 0 0.0 0.0 0.00 0.00 0.00 94 1018.2
20260902052603 76 0 0.0 0.0 0.00 0.00 0.00 94 1018.1
20260902052059 76 0 0.0 0.0 0.00 0.00 0.00 94 1018.2
20260902051615 76 0 0.0 0.0 0.00 0.00 0.00 94 1018.1
20260902051058 76 0 0.0 0.0 0.00 0.00 0.00 94 1018.1
20260902050600 76 0 0.0 0.0 0.00 0.00 0.00 94 1018.2
20260902050107 76 0 0.0 0.0 0.00 0.00 0.00 93 1018.1
20260902045559 76 0 0.0 0.0 0.00 0.00 0.00 93 1018.1
20260902045058 76 0 0.0 0.0 0.00 0.00 0.00 93 1018.2
20260902044629 77 0 0.0 0.0 0.00 0.00 0.00 93 1018.3
20260902044059 77 0 0.0 0.0 0.00 0.00 0.00 93 1018.3
20260902043558 77 0 0.0 0.0 0.00 0.00 0.00 93 1018.4
20260902043059 77 0 0.0 0.0 0.00 0.00 0.00 93 1018.4
20260902042556 77 0 0.0 0.0 0.00 0.00 0.00 92 1018.4
20260902042055 77 0 0.0 0.0 0.00 0.00 0.00 92 1018.4
20260902041604 77 0 0.0 1.0 0.00 0.00 0.00 92 1018.4
20260902041057 77 0 0.0 1.0 0.00 0.00 0.00 92 1018.4
20260902040558 78 0 0.0 0.0 0.00 0.00 0.00 91 1018.4
20260902040106 78 0 0.0 0.0 0.00 0.00 0.00 91 1018.4
20260902035558 78 0 0.0 0.0 0.00 0.00 0.00 91 1018.5
20260902035058 78 0 0.0 0.0 0.00 0.00 0.00 90 1018.5
20260902034603 78 0 0.0 0.0 0.00 0.00 0.00 90 1018.5
20260902034058 78 0 0.0 0.0 0.00 0.00 0.00 90 1018.6
20260902033555 78 0 0.0 0.0 0.00 0.00 0.00 89 1018.6
20260902033107 78 0 0.0 1.0 0.00 0.00 0.00 89 1018.5
20260902032559 79 0 0.0 1.0 0.00 0.00 0.00 89 1018.5
20260902032056 79 0 0.0 0.0 0.00 0.00 0.00 89 1018.6
20260902031619 79 0 0.0 1.0 0.00 0.00 0.00 92 1018.5
20260902031058 79 0 0.0 1.0 0.00 0.00 0.00 89 1018.5
20260902030557 79 0 0.0 1.0 0.00 0.00 0.00 90 1018.5
20260902030108 79 0 0.0 0.0 0.00 0.00 0.00 90 1018.4
20260902025559 79 0 0.0 0.0 0.00 0.00 0.00 90 1018.5
20260902025056 79 0 0.0 0.0 0.00 0.00 0.00 89 1018.5
20260902024604 79 0 0.0 0.0 0.00 0.00 0.00 89 1018.4
20260902024055 79 0 0.0 0.0 0.00 0.00 0.00 88 1018.5
20260902023555 79 0 0.0 1.0 0.00 0.00 0.00 88 1018.4
20260902023107 79 0 0.0 1.0 0.00 0.00 0.00 87 1018.3
20260902022558 79 0 0.0 0.0 0.00 0.00 0.00 88 1018.3
20260902022055 80 0 0.0 0.0 0.00 0.00 0.00 88 1018.4
20260902021605 80 0 0.0 0.0 0.00 0.00 0.00 88 1018.3
20260902021056 80 0 0.0 0.0 0.00 0.00 0.00 88 1018.3
20260902020556 80 0 0.0 0.0 0.00 0.00 0.00 86 1018.2
20260902020105 80 0 0.0 0.0 0.00 0.00 0.00 85 1018.1
20260902015601 81 0 0.0 0.0 0.00 0.00 0.00 85 1018.2
20260902015058 81 0 0.0 0.0 0.00 0.00 0.00 85 1018.2
20260902014603 81 0 0.0 0.0 0.00 0.00 0.00 85 1018.2
20260902014056 81 0 0.0 0.0 0.00 0.00 0.00 84 1018.1
20260902013558 82 0 0.0 0.0 0.00 0.00 0.00 82 1017.9
20260902013112 82 0 0.0 0.0 0.00 0.00 0.00 82 1017.9
20260902012556 82 0 0.0 0.0 0.00 0.00 0.00 81 1017.9
20260902012057 82 0 0.0 0.0 0.00 0.00 0.00 80 1017.8
20260902011602 83 0 0.0 0.0 0.00 0.00 0.00 80 1017.6
20260902011058 83 0 0.0 1.0 0.00 0.00 0.00 79 1017.5
20260902010558 83 0 0.0 1.0 0.00 0.00 0.00 78 1017.4
20260902010105 84 147 0.0 0.0 0.00 0.00 0.00 81 1017.4
20260902005555 84 0 0.0 0.0 0.00 0.00 0.00 76 1017.3
20260902005056 85 0 0.0 0.0 0.00 0.00 0.00 75 1017.3
20260902004606 85 0 0.0 2.0 0.00 0.00 0.00 74 1017.3
20260902004059 85 0 0.0 4.0 0.00 0.00 0.00 73 1017.3
20260902003555 86 0 0.0 4.0 0.00 0.00 0.00 72 1017.3
20260902003101 86 0 2.0 5.0 0.00 0.00 0.00 71 1017.2
20260902002558 86 104 1.0 5.0 0.00 0.00 0.00 70 1017.2
20260902002058 87 93 2.0 8.0 0.00 0.00 0.00 69 1017.2
20260902001605 86 120 1.0 8.0 0.00 0.00 0.00 73 1017.2
20260902001058 87 113 0.0 1.0 0.00 0.00 0.00 74 1017.1
20260902000558 87 0 0.0 1.0 0.00 0.00 0.00 73 1016.8
20260901235559 88 0 0.0 0.0 0.00 0.00 0.00 73 1016.8
20260901235058 89 0 0.0 2.0 0.00 0.00 0.00 66 1016.7
20260901234607 89 0 0.0 2.0 0.00 0.00 0.00 71 1016.8
20260901234104 91 141 0.0 2.0 0.00 0.00 0.00 65 1016.8
20260901233558 91 0 0.0 2.0 0.00 0.00 0.00 60 1016.8
20260901233134 92 0 0.0 2.0 0.00 0.00 0.00 58 1016.7
20260901232558 92 0 0.0 2.0 0.00 0.00 0.00 57 1016.8
20260901232102 92 0 0.0 2.0 0.00 0.00 0.00 60 1016.8
20260901231616 93 91 0.0 2.0 0.00 0.00 0.00 59 1016.8
20260901231058 93 0 0.0 2.0 0.00 0.00 0.00 56 1016.7
20260901230556 93 0 0.0 4.0 0.00 0.00 0.00 55 1016.7
20260901230110 93 91 0.0 4.0 0.00 0.00 0.00 55 1016.8
20260901225557 93 92 0.0 2.0 0.00 0.00 0.00 55 1016.8
20260901225055 93 0 0.0 2.0 0.00 0.00 0.00 55 1016.8
20260901224601 93 85 0.0 2.0 0.00 0.00 0.00 54 1016.8
20260901224100 93 95 0.0 5.0 0.00 0.00 0.00 54 1016.8
20260901223601 93 0 1.0 5.0 0.00 0.00 0.00 56 1016.8
20260901223103 94 0 0.0 3.0 0.00 0.00 0.00 57 1016.8
20260901222600 94 109 0.0 3.0 0.00 0.00 0.00 55 1016.8
20260901222054 94 109 0.0 3.0 0.00 0.00 0.00 56 1016.9
20260901221612 95 0 0.0 3.0 0.00 0.00 0.00 56 1016.9
20260901221056 94 84 0.0 3.0 0.00 0.00 0.00 56 1016.8
20260901220559 94 0 1.0 4.0 0.00 0.00 0.00 54 1016.7
20260901215558 95 0 0.0 2.0 0.00 0.00 0.00 58 1016.6
20260901215055 95 0 0.0 3.0 0.00 0.00 0.00 57 1016.7
20260901214602 94 0 0.0 7.0 0.00 0.00 0.00 59 1016.7
20260901214055 95 98 0.0 7.0 0.00 0.00 0.00 57 1016.7
20260901213555 94 42 3.0 7.0 0.00 0.00 0.00 59 1016.8
20260901213107 94 92 0.0 5.0 0.00 0.00 0.00 55 1016.6
20260901212559 94 79 1.0 6.0 0.00 0.00 0.00 60 1016.8
20260901212056 94 163 2.0 6.0 0.00 0.00 0.00 60 1016.8
20260901211600 93 32 0.0 4.0 0.00 0.00 0.00 59 1016.8
20260901211056 92 0 1.0 4.0 0.00 0.00 0.00 65 1016.8
20260901210600 91 91 0.0 3.0 0.00 0.00 0.00 62 1016.9
20260901210058 90 0 0.0 5.0 0.00 0.00 0.00 63 1016.9
20260901205555 91 91 0.0 5.0 0.00 0.00 0.00 62 1016.9
20260901205057 91 0 1.0 5.0 0.00 0.00 0.00 64 1016.8
20260901204602 92 125 2.0 8.0 0.00 0.00 0.00 59 1016.8
20260901204055 93 100 2.0 8.0 0.00 0.00 0.00 60 1016.8
20260901203602 96 174 1.0 5.0 0.00 0.00 0.00 54 1016.7
20260901203106 96 30 0.0 8.0 0.00 0.00 0.00 57 1016.7
20260901202600 96 103 2.0 8.0 0.00 0.00 0.00 59 1016.7
20260901202058 95 0 4.0 8.0 0.00 0.00 0.00 56 1016.8
20260901201605 95 231 1.0 5.0 0.00 0.00 0.00 59 1017.0
20260901201056 94 127 2.0 9.0 0.00 0.00 0.00 55 1017.1
20260901200555 94 91 0.0 9.0 0.00 0.00 0.00 56 1017.1
20260901200059 94 0 3.0 9.0 0.00 0.00 0.00 60 1017.4
20260901195558 94 83 3.0 7.0 0.00 0.00 0.00 59 1017.3
20260901195056 95 96 2.0 5.0 0.00 0.00 0.00 57 1017.4
20260901194607 96 65 0.0 4.0 0.00 0.00 0.00 58 1017.4
20260901194056 96 111 1.0 3.0 0.00 0.00 0.00 56 1017.5
20260901193555 96 259 0.0 3.0 0.00 0.00 0.00 54 1017.5
20260901193106 95 341 0.0 4.0 0.00 0.00 0.00 57 1017.6
20260901192559 95 6 0.0 4.0 0.00 0.00 0.00 57 1017.6
20260901192058 94 30 1.0 4.0 0.00 0.00 0.00 56 1017.7
20260901191601 94 86 1.0 4.0 0.00 0.00 0.00 60 1017.8
20260901191056 93 143 1.0 4.0 0.00 0.00 0.00 61 1017.9
20260901190558 91 0 0.0 3.0 0.00 0.00 0.00 62 1018.1
20260901190059 90 0 0.0 3.0 0.00 0.00 0.00 67 1018.2
20260901185556 90 0 0.0 3.0 0.00 0.00 0.00 64 1018.3
20260901185058 91 0 0.0 3.0 0.00 0.00 0.00 66 1018.4
20260901184607 91 0 0.0 5.0 0.00 0.00 0.00 66 1018.5
20260901184059 93 0 1.0 5.0 0.00 0.00 0.00 60 1018.5
20260901183557 94 98 2.0 5.0 0.00 0.00 0.00 57 1018.7
20260901183121 94 0 2.0 5.0 0.00 0.00 0.00 58 1018.7